Weather in Terjola

Georgia     42°11′13″N   42°58′46″E
temp.,
°C
wind,
m/s
gust,
m/s
humid.,
%
clouds,
%
prec.,
mm/h
press.,
hPa
HPBL,
m
13 april, tue
tue1301:00+6ene118997 0.1 102419
04:00+6sw0096100 0.6 102241
07:00+6s1097100 1.3 102274
10:00+8sw1191100 3.2 1022401
13:00+8wsw3397100 1.0 1022409
16:00+6wsw2598100 2.7 1021396
19:00+6w2598100 8.9 1022692
22:00+5ne2291100 12.4 1024139
14 april, wed
wed1401:00+5e0091100 0.0 102340
04:00+5ene0091100 0.0 102221
07:00+5ne1190100 0.0 102245
10:00+9e2275100 0.0 1020520
13:00+15w235622 0.0 10171027
16:00+16w46430 0.0 10161281
19:00+13w12705 0.0 101713
22:00+8ne327618 0.0 101922
15 april, thu
thu1501:00+7ne32765 0.0 101827
04:00+6ne337189 0.0 101831
07:00+6ne33695 0.0 101842
10:00+15ene34465 0.0 1017484
13:00+20nw02335 0.0 10151267
16:00+21wsw36345 0.0 10141774
19:00+16w2261100 0.0 101511
22:00
16 april, fri
fri1601:00+7e229381 0.0 101917
04:00+8ene228291 0.0 101945
07:00+9ene337624 0.0 101747
10:00+16e365197 0.0 1015611
13:00+21ese333810 0.0 10141591
16:00+22w3438100 0.0 10131771
19:00+13sw468742 0.1 1017427
22:00+10sw2393100 0.3 1020336
17 april, sat
sat1701:00+9sw2396100 0.1 1021254
04:00+9wsw2299100 3.4 1020177
07:00+9w2297100 1.9 1020139
10:00+10se1194100 3.2 1021228
13:00+11wsw2289100 0.3 1021416
16:00+12wsw2187100 1.4 1020465
19:00+13ene118696 0.5 101955
22:00+10ene338764 0.5 101931